[[{"header":{"parameterUnit":"m.s-1","parameterCategory":1,"la1":30.2991,"la2":30.254,"lo1":-89.0895,"lo2":-89.0444,"dy":0.0017,"dx":0.0017,"nx":28,"ny":28,"refTime":"2025-07-28T21:00:00:Z","depth":0,"parameterNumber":2,"parameterNumberName":"U-component_of_WINDS"},"data":[0,0,0,0,0,0,0,0,0,0,0,0,0,0,0,0,0,0,0,0,0,0,0,0,0,0,0,0,0,0,0,0,0,0,0,0,0,0,0,0,0,0,0,0,0,0,0,0,0,0,0,0,0,0,0,0,0,0,2.3019,2.3019,0,2.2992,2.2991,2.2991,2.2917,2.2916,2.2914,2.2913,2.2883,2.2884,2.2884,0,0,0,0,0,0,0,0,0,0,0,0,0,2.3009,2.301,2.3019,2.3019,2.3019,2.2992,2.2991,2.2991,2.2918,2.2916,2.2914,2.2912,2.2883,2.2884,2.2884,0,0,0,0,0,0,0,0,0,0,0,0,0,2.3001,2.301,2.302,2.2979,2.2975,2.2992,2.2991,2.2991,2.2918,2.2916,2.2913,2.2911,2.2882,2.2883,2.2884,2.2938,0,0,2.2888,2.2888,0,0,0,0,0,0,0,0,2.3001,2.3001,2.2985,2.2982,2.2977,2.2956,2.2977,2.2973,2.2919,2.294,2.2913,2.291,2.2909,2.2908,2.2908,2.2937,2.2935,2.2888,2.2888,2.2889,2.2889,0,0,0,0,0,0,0,2.3002,2.3002,2.3008,2.2985,2.298,2.2962,2.2958,2.2976,2.2938,2.2938,2.2932,2.293,2.2906,2.2907,2.2906,2.2935,2.2888,2.2889,2.2889,2.289,2.3009,2.3012,0,0,0,0,0,0,2.3008,2.3003,2.3009,2.3008,2.2984,2.2964,2.296,2.2965,2.2937,2.2931,2.2932,2.2927,2.2906,2.2905,2.2905,2.2968,2.2889,2.289,2.289,2.3007,2.301,2.3013,0,0,0,0,0,0,2.3008,2.301,2.301,2.3004,2.3002,2.2967,2.2973,2.2966,2.2966,2.2933,2.2926,2.2939,2.2904,2.2904,2.2931,2.2966,2.289,2.2891,2.3004,2.3008,2.3011,2.3093,0,0,0,0,0,0,2.3008,2.301,2.303,2.3005,2.3003,2.3037,2.2975,2.2967,2.2968,2.2961,2.2938,2.2932,2.2902,2.293,2.2932,2.2966,2.2892,2.3001,2.3006,2.301,2.3087,2.31,2.311,0,0,0,0,0,2.3008,2.3053,2.3031,2.3033,2.3027,2.3039,2.3038,2.3003,2.2971,2.2991,2.2971,2.2933,2.2962,2.2933,2.2935,2.297,2.2998,2.3004,2.301,2.3082,2.3097,2.311,0,0,0,0,0,0,2.3082,2.3049,2.3024,2.3062,2.3055,2.3027,2.3051,2.302,2.302,2.3013,2.2969,2.2965,2.2999,2.2987,2.2956,2.3022,2.2974,2.298,2.3029,2.3042,2.3053,2.3056,2.2893,0,0,0,0,0,2.3103,2.3116,2.3086,2.3123,2.312,2.3087,2.309,2.3064,2.3054,2.305,2.3031,2.3022,2.3029,2.3035,2.3039,2.3085,2.308,2.311,2.3121,2.3131,2.3137,2.3163,2.3176,2.3032,2.3032,2.3032,0,0,2.3146,2.313,2.314,2.3137,2.3128,2.3143,2.3084,2.3101,2.3112,2.3052,2.3078,2.3064,2.3051,2.3089,2.3105,2.308,2.3176,2.3138,2.3146,2.3147,2.317,2.3184,2.3196,2.3036,2.3035,2.3034,0,0,2.3232,2.3221,2.3251,2.3243,2.3231,2.3208,2.3216,2.3193,2.3182,2.3207,2.3164,2.3176,2.3188,2.3182,2.318,2.3267,2.3233,2.3269,2.3329,2.3354,2.3366,2.3375,2.3408,2.342,2.3276,2.3276,2.3276,0,2.3287,2.3308,2.327,2.3291,2.3292,2.324,2.3271,2.3265,2.3254,2.3256,2.3229,2.3246,2.3233,2.327,2.3291,2.3291,2.3299,2.3272,2.3367,2.3377,2.3385,2.3416,2.3428,2.3281,2.328,2.328,2.3279,0,2.3377,2.3392,2.3418,2.3411,2.3414,2.344,2.3407,2.3415,2.339,2.3371,2.3398,2.3381,2.3383,2.3389,2.3364,2.3423,2.3409,2.3375,2.3326,2.3404,2.3433,2.3444,2.3287,2.3286,2.3284,2.3283,0,0,2.3509,2.3482,2.3492,2.3489,2.3472,2.3483,2.3507,2.351,2.3518,2.3513,2.3533,2.3546,2.3516,2.3514,2.3487,2.3509,2.3582,2.3473,2.3472,2.3495,2.3649,2.3676,2.369,2.3559,2.3561,2.3563,2.3651,0,2.3592,2.3632,2.36,2.3646,2.3661,2.3613,2.3634,2.3626,2.3609,2.3619,2.36,2.3611,2.3569,2.3568,2.3588,2.3569,2.3612,2.3562,2.3578,2.3579,2.3585,2.3704,2.3732,2.3816,2.3661,2.3663,2.3664,0,2.3694,2.3695,2.3743,2.3725,2.373,2.375,2.3751,2.3761,2.3752,2.3738,2.3738,2.3705,2.3729,2.3681,2.3713,2.368,2.3685,2.3677,2.3679,2.368,2.3628,2.371,2.3841,2.3854,2.3681,2.368,2.3678,0,2.3787,2.3801,2.3832,2.383,2.381,2.3825,2.3817,2.3806,2.381,2.3811,2.3814,2.3817,2.3819,2.3822,2.3792,2.376,2.3829,2.3778,2.382,2.3821,2.3837,2.3837,2.3972,2.3838,2.3838,2.3838,2.3837,0,2.3884,2.3916,2.3874,2.3894,2.3928,2.3891,2.3927,2.3914,2.3905,2.3921,2.3879,2.3895,2.3854,2.3866,2.3843,2.3874,2.3875,2.3865,2.3859,2.387,2.3872,2.3873,2.3867,2.3841,2.384,2.3839,2.3839,0,2.3995,2.3968,2.3999,2.3978,2.3973,2.4,2.3982,2.3999,2.398,2.4002,2.4005,2.3975,2.3988,2.3958,2.3966,2.395,2.3996,2.398,2.4,2.3996,2.4039,2.4036,2.4182,2.42,2.4053,2.4054,2.4056,0,2.4059,2.4083,2.4065,2.4073,2.4068,2.4082,2.4087,2.4052,2.4059,2.4051,2.407,2.4079,2.4085,2.4108,2.4087,2.4093,2.4078,2.4128,2.4078,2.4089,2.4081,2.408,2.4083,2.4139,2.4141,2.4142,2.4143,0,2.4177,2.4163,2.4172,2.4177,2.4184,2.4186,2.4185,2.4194,2.4157,2.4167,2.418,2.4184,2.4194,2.4204,2.4206,2.4198,2.4166,2.4159,2.417,2.4182,2.4193,2.419,2.403,2.4156,2.4155,2.4154,2.4153,2.4153,2.4267,2.4287,2.4279,2.429,2.4286,2.4287,2.4303,2.4287,2.4297,2.4303,2.4281,2.43,2.4291,2.4291,2.4287,2.4301,2.4278,2.4292,2.4296,2.4301,2.4309,2.419,2.4301,2.43,2.43,2.43,2.4299,0,2.4385,2.4377,2.4388,2.4389,2.4399,2.4368,2.4366,2.4376,2.4393,2.4389,2.4396,2.4412,2.4422,2.4403,2.4411,2.4426,2.4411,2.4429,2.4429,2.4428,2.4328,2.4319,2.4441,2.4441,2.4441,2.4441,2.4441,2.4441,2.4447,2.448,2.4465,2.4496,2.4488,2.4507,2.4508,2.4509,2.4506,2.4526,2.4535,2.4522,2.4513,2.4519,2.4528,2.4522,2.4528,2.4551,2.4541,2.4448,2.4434,2.4421,2.4413,2.4552,2.4553,2.4639,2.464,2.4641]},{"header":{"parameterUnit":"m.s-1","parameterCategory":1,"la1":30.2991,"la2":30.254,"lo1":-89.0895,"lo2":-89.0444,"dy":0.0017,"dx":0.0017,"nx":28,"ny":28,"refTime":"2025-07-28T21:00:00:Z","depth":0,"parameterNumber":3,"parameterNumberName":"V-component_of_WINDS"},"data":[0,0,0,0,0,0,0,0,0,0,0,0,0,0,0,0,0,0,0,0,0,0,0,0,0,0,0,0,0,0,0,0,0,0,0,0,0,0,0,0,0,0,0,0,0,0,0,0,0,0,0,0,0,0,0,0,0,0,-3.1872,-3.1873,0,-3.1978,-3.1979,-3.198,-3.2004,-3.2003,-3.2002,-3.2002,-3.2108,-3.2112,-3.2115,0,0,0,0,0,0,0,0,0,0,0,0,0,-3.169,-3.1693,-3.1872,-3.1873,-3.1874,-3.1977,-3.1979,-3.198,-3.2004,-3.2003,-3.2002,-3.2001,-3.2107,-3.2111,-3.2116,0,0,0,0,0,0,0,0,0,0,0,0,0,-3.178,-3.1694,-3.1872,-3.1899,-3.1902,-3.1977,-3.1979,-3.1981,-3.2004,-3.2003,-3.2002,-3.2001,-3.2106,-3.2111,-3.2116,-3.2171,0,0,-3.2132,-3.2135,0,0,0,0,0,0,0,0,-3.1775,-3.1786,-3.1893,-3.1897,-3.1901,-3.1977,-3.1954,-3.2044,-3.2005,-3.1966,-3.2002,-3.2,-3.2065,-3.2074,-3.2096,-3.2176,-3.2181,-3.2133,-3.2136,-3.2138,-3.214,0,0,0,0,0,0,0,-3.1768,-3.1782,-3.1914,-3.1895,-3.19,-3.1906,-3.1917,-3.1971,-3.202,-3.1969,-3.1971,-3.1983,-3.2067,-3.2091,-3.2099,-3.2182,-3.2133,-3.2137,-3.2141,-3.2143,-3.2314,-3.2315,0,0,0,0,0,0,-3.1758,-3.1777,-3.191,-3.1917,-3.1834,-3.191,-3.1923,-3.1953,-3.202,-3.2029,-3.1984,-3.1984,-3.2082,-3.2093,-3.2103,-3.2173,-3.2138,-3.2143,-3.2146,-3.2313,-3.2314,-3.2316,0,0,0,0,0,0,-3.1754,-3.1769,-3.1906,-3.1847,-3.1865,-3.1914,-3.1948,-3.1956,-3.198,-3.2031,-3.204,-3.1999,-3.2082,-3.2095,-3.2154,-3.2177,-3.2146,-3.215,-3.2311,-3.2313,-3.2315,-3.2312,0,0,0,0,0,0,-3.1748,-3.1768,-3.1789,-3.1848,-3.1868,-3.1956,-3.195,-3.1959,-3.1989,-3.199,-3.2048,-3.2056,-3.2082,-3.2146,-3.216,-3.2183,-3.2155,-3.2309,-3.2312,-3.2314,-3.2311,-3.2314,-3.2317,0,0,0,0,0,-3.1742,-3.1783,-3.179,-3.1806,-3.1896,-3.1957,-3.1969,-3.1998,-3.1991,-3.2013,-3.2046,-3.2055,-3.2172,-3.2152,-3.2167,-3.2193,-3.2308,-3.2311,-3.2314,-3.2309,-3.2313,-3.2317,0,0,0,0,0,0,-3.1726,-3.1792,-3.18,-3.1862,-3.1904,-3.1961,-3.199,-3.2002,-3.2046,-3.2045,-3.2079,-3.2092,-3.2149,-3.2177,-3.2154,-3.225,-3.224,-3.2246,-3.2231,-3.2235,-3.2238,-3.2231,-3.2159,0,0,0,0,0,-3.1729,-3.1774,-3.1829,-3.1878,-3.1899,-3.1941,-3.1969,-3.1988,-3.2032,-3.205,-3.2088,-3.2131,-3.2177,-3.2207,-3.2253,-3.2314,-3.2328,-3.2339,-3.2342,-3.2345,-3.235,-3.2386,-3.2393,-3.2326,-3.2326,-3.2326,0,0,-3.1737,-3.1779,-3.1805,-3.1876,-3.1911,-3.1957,-3.1956,-3.2004,-3.2038,-3.2057,-3.2117,-3.2145,-3.2195,-3.2256,-3.2285,-3.2281,-3.2371,-3.2349,-3.235,-3.2355,-3.239,-3.2396,-3.2402,-3.2328,-3.2328,-3.2327,0,0,-3.1776,-3.1811,-3.1857,-3.1892,-3.1946,-3.1973,-3.1984,-3.204,-3.2061,-3.212,-3.2136,-3.2177,-3.2256,-3.2292,-3.232,-3.2373,-3.2383,-3.2387,-3.2404,-3.2438,-3.2444,-3.2449,-3.2469,-3.2476,-3.2392,-3.2392,-3.2392,0,-3.1779,-3.1849,-3.1879,-3.1927,-3.1958,-3.1978,-3.2026,-3.2058,-3.2123,-3.2144,-3.2139,-3.224,-3.2275,-3.2345,-3.2358,-3.238,-3.2394,-3.2381,-3.2441,-3.2446,-3.2451,-3.2471,-3.2478,-3.2392,-3.2392,-3.2392,-3.2392,0,-3.1852,-3.19,-3.193,-3.1994,-3.2028,-3.2075,-3.2113,-3.2144,-3.216,-3.2188,-3.2249,-3.2291,-3.2347,-3.2365,-3.238,-3.2438,-3.2434,-3.2434,-3.2424,-3.2457,-3.2476,-3.2484,-3.2392,-3.2392,-3.2392,-3.2392,0,0,-3.1884,-3.1964,-3.1975,-3.2004,-3.2065,-3.2102,-3.215,-3.2205,-3.2232,-3.2276,-3.2318,-3.2385,-3.2386,-3.2418,-3.2438,-3.2468,-3.2509,-3.2465,-3.2467,-3.2473,-3.2577,-3.2578,-3.2586,-3.2516,-3.2517,-3.2518,-3.2574,0,-3.1931,-3.2019,-3.2047,-3.212,-3.2166,-3.2185,-3.2227,-3.2269,-3.2297,-3.2339,-3.2369,-3.2417,-3.2414,-3.2434,-3.2464,-3.2498,-3.2531,-3.2494,-3.2556,-3.2558,-3.2545,-3.2596,-3.2597,-3.2647,-3.2581,-3.2582,-3.2583,0,-3.1998,-3.2045,-3.2122,-3.2178,-3.2198,-3.2236,-3.2289,-3.2329,-3.2377,-3.2395,-3.2431,-3.2448,-3.25,-3.2486,-3.2558,-3.2532,-3.2559,-3.2579,-3.2582,-3.259,-3.2574,-3.2608,-3.2664,-3.2672,-3.2595,-3.2594,-3.2593,0,-3.2017,-3.2098,-3.2155,-3.218,-3.2246,-3.2272,-3.23,-3.2347,-3.2379,-3.2425,-3.2446,-3.2497,-3.2525,-3.2565,-3.2595,-3.2582,-3.2665,-3.2653,-3.2682,-3.2682,-3.27,-3.2699,-3.2763,-3.2714,-3.2714,-3.2714,-3.2714,0,-3.2068,-3.2115,-3.2165,-3.22,-3.2254,-3.2286,-3.2338,-3.2368,-3.2409,-3.2451,-3.247,-3.2509,-3.2546,-3.259,-3.2614,-3.2671,-3.2683,-3.27,-3.2706,-3.2699,-3.2697,-3.2719,-3.2717,-3.2716,-3.2716,-3.2715,-3.2715,0,-3.2098,-3.2133,-3.2197,-3.2254,-3.227,-3.2307,-3.2356,-3.2392,-3.242,-3.2472,-3.2487,-3.2531,-3.2584,-3.2618,-3.2685,-3.2701,-3.2764,-3.2768,-3.2748,-3.2751,-3.2779,-3.2777,-3.2861,-3.2874,-3.2814,-3.2815,-3.2815,0,-3.2129,-3.2166,-3.2228,-3.2257,-3.2286,-3.2333,-3.2366,-3.2399,-3.2432,-3.249,-3.2518,-3.2572,-3.2618,-3.2701,-3.2739,-3.279,-3.2797,-3.2823,-3.2805,-3.2798,-3.28,-3.2798,-3.2803,-3.2826,-3.2827,-3.2827,-3.2828,0,-3.2182,-3.2197,-3.2244,-3.2297,-3.2335,-3.2378,-3.2421,-3.2444,-3.2485,-3.2521,-3.2575,-3.261,-3.2679,-3.2733,-3.2788,-3.2817,-3.283,-3.2833,-3.2843,-3.2837,-3.2825,-3.2834,-3.2758,-3.2831,-3.2831,-3.2831,-3.283,-3.283,-3.2215,-3.2249,-3.2298,-3.235,-3.2385,-3.2425,-3.2462,-3.2495,-3.2541,-3.26,-3.2617,-3.2674,-3.2721,-3.2797,-3.2827,-3.2872,-3.287,-3.2883,-3.2887,-3.289,-3.2892,-3.2816,-3.2882,-3.2882,-3.2882,-3.2882,-3.2882,0,-3.227,-3.2303,-3.2349,-3.241,-3.245,-3.2458,-3.2506,-3.254,-3.259,-3.2633,-3.2678,-3.2741,-3.2793,-3.2836,-3.289,-3.2918,-3.2925,-3.2931,-3.293,-3.2937,-3.289,-3.2878,-3.2925,-3.2925,-3.2925,-3.2925,-3.2925,-3.2925,-3.2304,-3.2363,-3.2384,-3.2462,-3.2494,-3.2551,-3.2578,-3.2615,-3.265,-3.272,-3.2764,-3.2791,-3.2834,-3.2892,-3.2941,-3.2952,-3.2972,-3.2977,-3.2989,-3.2945,-3.294,-3.2936,-3.2924,-3.298,-3.298,-3.3033,-3.3033,-3.3034]}]]